TimeCDT,TemperatureF,Dew PointF,Humidity,Sea Level PressureIn,VisibilityMPH,Wind Direction,Wind SpeedMPH,Gust SpeedMPH,PrecipitationIn,Events,Conditions,WindDirDegrees,DateUTC
12:15 AM,41.0,37.4,87,29.74,5.0,SSE,8.1,-,0.05,Rain,Rain,160,2013-03-10 06:15:00
12:35 AM,42.8,37.4,81,29.73,7.0,SSE,9.2,-,0.07,Rain,Light Rain,160,2013-03-10 06:35:00
12:55 AM,41.0,37.4,87,29.72,4.0,SSE,6.9,-,0.10,Rain,Rain,160,2013-03-10 06:55:00
1:15 AM,42.8,37.4,81,29.72,2.5,South,9.2,-,0.11,Rain,Heavy Rain,170,2013-03-10 07:15:00
1:35 AM,42.8,39.2,87,29.71,4.0,South,10.4,-,0.16,Rain,Rain,170,2013-03-10 07:35:00
1:55 AM,42.8,39.2,87,29.71,5.0,South,9.2,-,0.21,Rain,Rain,170,2013-03-10 07:55:00
3:15 AM,42.8,39.2,87,29.71,2.5,SSE,9.2,-,0.02,Rain,Light Rain,160,2013-03-10 08:15:00
3:35 AM,44.6,41.0,87,29.69,3.0,SSE,11.5,-,0.04,Rain,Rain,160,2013-03-10 08:35:00
3:55 AM,44.6,41.0,87,29.69,3.0,SSE,6.9,-,0.05,Rain,Light Rain,160,2013-03-10 08:55:00
4:15 AM,44.6,39.2,81,29.69,2.0,SSE,5.8,-,0.01,Rain,Light Rain,160,2013-03-10 09:15:00
4:35 AM,44.6,41.0,87,29.65,2.0,East,5.8,-,0.02,Rain,Rain,100,2013-03-10 09:35:00
4:55 AM,44.6,41.0,87,29.63,5.0,SE,11.5,-,0.02,,Mostly Cloudy,130,2013-03-10 09:55:00
5:15 AM,46.4,42.8,87,29.60,7.0,SSE,12.7,24.2,0.01,Rain,Light Rain,150,2013-03-10 10:15:00
5:35 AM,44.6,41.0,87,29.68,7.0,SSW,10.4,-,0.01,,Mostly Cloudy,200,2013-03-10 10:35:00
5:55 AM,44.6,39.2,81,29.69,5.0,Calm,Calm,-,0.01,,Overcast,0,2013-03-10 10:55:00
6:15 AM,42.8,39.2,87,29.68,5.0,SE,8.1,-,N/A,,Overcast,140,2013-03-10 11:15:00
7:15 AM,42.8,37.4,81,29.70,3.0,Calm,Calm,-,N/A,,Overcast,0,2013-03-10 12:15:00
7:35 AM,41.0,37.4,87,29.69,0.8,East,4.6,-,N/A,,Overcast,80,2013-03-10 12:35:00
7:55 AM,41.0,37.4,87,29.71,2.5,ESE,3.5,-,N/A,,Overcast,120,2013-03-10 12:55:00
8:15 AM,41.0,37.4,87,29.71,3.0,ESE,4.6,-,N/A,,Overcast,120,2013-03-10 13:15:00
8:35 AM,41.0,37.4,87,29.70,2.5,Calm,Calm,-,N/A,,Overcast,0,2013-03-10 13:35:00
8:55 AM,41.0,37.4,87,29.69,1.0,Calm,Calm,-,N/A,,Overcast,0,2013-03-10 13:55:00
9:15 AM,41.0,37.4,87,29.69,0.2,Calm,Calm,-,N/A,Fog,Fog,0,2013-03-10 14:15:00
9:35 AM,42.8,37.4,81,29.71,0.2,Calm,Calm,-,N/A,Fog,Fog,0,2013-03-10 14:35:00
9:55 AM,39.2,35.6,87,29.71,0.2,NNW,4.6,-,N/A,Fog,Fog,340,2013-03-10 14:55:00
10:15 AM,39.2,37.4,93,29.71,0.2,North,3.5,-,0.01,Rain,Light Rain,360,2013-03-10 15:15:00
10:35 AM,41.0,37.4,87,29.70,0.2,NE,3.5,-,0.02,Rain,Rain,40,2013-03-10 15:35:00
10:55 AM,41.0,37.4,87,29.67,0.2,NNE,5.8,-,0.03,Rain,Rain,30,2013-03-10 15:55:00
11:15 AM,42.8,37.4,81,29.70,0.2,Calm,Calm,-,0.01,Rain,Light Rain,0,2013-03-10 16:15:00
11:35 AM,42.8,39.2,87,29.69,0.2,Calm,Calm,-,0.03,Rain,Light Rain,0,2013-03-10 16:35:00
11:55 AM,42.8,37.4,81,29.70,0.2,Calm,Calm,-,0.04,Rain,Light Rain,0,2013-03-10 16:55:00
12:15 PM,41.0,37.4,87,29.70,0.2,Calm,Calm,-,0.03,Rain,Rain,0,2013-03-10 17:15:00
12:35 PM,41.0,37.4,87,29.68,0.2,Calm,Calm,-,0.08,Rain,Rain,0,2013-03-10 17:35:00
12:55 PM,41.0,37.4,87,29.67,0.2,NNE,4.6,-,0.12,Rain,Rain,20,2013-03-10 17:55:00
1:15 PM,41.0,37.4,87,29.68,0.5,ENE,4.6,-,0.02,Rain,Light Rain,60,2013-03-10 18:15:00
1:35 PM,42.8,37.4,81,29.67,0.2,Calm,Calm,-,0.04,Rain,Light Rain,0,2013-03-10 18:35:00
1:55 PM,42.8,39.2,87,29.67,0.5,Calm,Calm,-,0.06,Rain,Rain,0,2013-03-10 18:55:00
2:15 PM,42.8,39.2,87,29.64,0.2,Calm,Calm,-,0.04,Rain,Rain,0,2013-03-10 19:15:00
2:35 PM,42.8,39.2,87,29.66,0.2,Calm,Calm,-,0.06,Rain,Light Rain,0,2013-03-10 19:35:00
2:55 PM,42.8,39.2,87,29.64,0.2,Calm,Calm,-,0.09,Rain,Rain,0,2013-03-10 19:55:00
3:15 PM,42.8,37.4,81,29.64,0.2,Calm,Calm,-,0.03,Rain,Rain,0,2013-03-10 20:15:00
3:35 PM,42.8,39.2,87,29.63,0.2,Calm,Calm,-,0.05,Rain,Rain,0,2013-03-10 20:35:00
3:55 PM,42.8,39.2,87,29.61,0.2,Calm,Calm,-,0.07,Rain,Light Rain,0,2013-03-10 20:55:00
4:15 PM,44.6,39.2,81,29.55,0.2,NE,11.5,-,0.01,Rain,Rain,50,2013-03-10 21:15:00
4:35 PM,44.6,41.0,87,29.55,0.8,ENE,9.2,-,0.01,,Overcast,60,2013-03-10 21:35:00
4:55 PM,44.6,39.2,81,29.58,0.5,Calm,Calm,-,0.01,Rain,Light Rain,0,2013-03-10 21:55:00
5:15 PM,42.8,39.2,87,29.61,0.2,SW,5.8,-,0.01,Rain,Rain,230,2013-03-10 22:15:00
5:35 PM,42.8,39.2,87,29.62,2.5,WSW,9.2,-,0.07,Rain,Rain,250,2013-03-10 22:35:00
5:55 PM,42.8,39.2,87,29.62,4.0,West,5.8,-,0.17,,Overcast,260,2013-03-10 22:55:00
6:15 PM,42.8,37.4,81,29.62,5.0,WNW,5.8,-,0.06,Rain,Rain,290,2013-03-10 23:15:00
6:35 PM,41.0,37.4,87,29.61,7.0,NNW,6.9,-,0.08,Rain,Light Rain,340,2013-03-10 23:35:00
6:55 PM,39.2,37.4,93,29.61,5.0,Calm,Calm,-,0.08,Rain,Light Rain,0,2013-03-10 23:55:00
7:15 PM,39.2,35.6,87,29.62,3.0,WNW,5.8,-,0.01,,Drizzle,300,2013-03-11 00:15:00
7:35 PM,39.2,35.6,87,29.63,3.0,West,3.5,-,0.03,Rain,Rain,270,2013-03-11 00:35:00
7:55 PM,39.2,35.6,87,29.63,2.5,NW,3.5,-,0.03,,Light Drizzle,310,2013-03-11 00:55:00
8:15 PM,39.2,35.6,87,29.64,5.0,Calm,Calm,-,N/A,,Light Drizzle,0,2013-03-11 01:15:00
8:35 PM,39.2,35.6,87,29.63,4.0,Calm,Calm,-,N/A,,Overcast,0,2013-03-11 01:35:00
9:15 PM,37.4,33.8,87,29.63,0.8,Calm,Calm,-,N/A,Rain,Light Rain,0,2013-03-11 02:15:00
9:35 PM,37.4,33.8,87,29.65,1.0,West,4.6,-,0.01,,Overcast,260,2013-03-11 02:35:00
9:55 PM,37.4,33.8,87,29.65,2.0,West,4.6,-,0.01,,Overcast,260,2013-03-11 02:55:00
10:15 PM,37.4,33.8,87,29.65,1.8,WSW,3.5,-,N/A,,Overcast,250,2013-03-11 03:15:00
10:35 PM,37.4,33.8,87,29.66,1.2,West,5.8,-,N/A,,Light Drizzle,260,2013-03-11 03:35:00
10:55 PM,37.4,33.8,87,29.65,1.2,Calm,Calm,-,N/A,,Overcast,0,2013-03-11 03:55:00
11:15 PM,37.4,33.8,87,29.65,1.2,WNW,4.6,-,N/A,,Overcast,290,2013-03-11 04:15:00
11:35 PM,37.4,33.8,87,29.65,1.2,Calm,Calm,-,N/A,,Overcast,0,2013-03-11 04:35:00
12:15 AM,37.4,33.8,87,29.65,0.2,West,3.5,-,N/A,Fog,Fog,280,2013-03-11 05:15:00
12:35 AM,37.4,33.8,87,29.65,0.8,WNW,3.5,-,N/A,,Overcast,300,2013-03-11 05:35:00
12:55 AM,37.4,33.8,87,29.65,1.2,WNW,3.5,-,N/A,,Overcast,300,2013-03-11 05:55:00